Location: Krakow
(50.0212°N, 19.9423°E)
Time: 00:21:54
(UTC+02:00)

NOAA 18 - Pass Details

Date: 22 August 2024
Orbit: 837 x 859 km, 98.9° (Epoch: 19 September)

Event Time Altitude Azimuth Distance (km) Brightness Sun altitude
Exits shadow 22:06:28 36° 123° (ESE) 1,341 5.7 -19.7°
Maximum altitude 22:08:27 54° 67° (ENE) 1,042 5.5 -19.9°
Drops below altitude 10° 22:13:51 10° 352° (N) 2,506 8.5 -20.5°
Sets 22:16:17 0° 348° (NNW) 3,445 9.5 -20.7°
